Location: Little Maitland River
(43.8022°N, 81.1549°W)
Time: 02:16:29
(UTC+00:00)

Cosmos 2322 Rocket - Pass Details

Date: 09 December 2025
Orbit: 831 x 850 km, 71.0° (Epoch: 24 January)

Event Time Altitude Azimuth Distance (km) Brightness Sun altitude
Exits shadow 09:52:56 12° 6° (N) 2,337 4.5 -30.5°
Maximum altitude 09:56:24 20° 47° (NE) 1,886 4.4 -29.9°
Drops below altitude 10° 10:00:26 10° 93° (E) 2,470 5.6 -29.1°
Sets 10:03:35 0° 110° (ESE) 3,398 6.5 -28.6°
